{"data":{"norad_id":62568,"intl_designator":"2025-006Q","name":"STARLINK-32760","alt_names":[],"object_type":"PAYLOAD","status":"ACTIVE","operator":null,"country":"US","launch_date":"2025-01-10","launch_site_code":"AFETR","launch_vehicle":null,"mission":null,"orbit_class":"UNKNOWN","rcs_meters":null,"size_class":null,"mass_kg":null,"dimensions":null,"purposes":["comms"],"wikipedia_slug":null,"has_3d_model":false,"image_url":null,"decayed_at":null,"tle_current":{"epoch":"2026-05-25T05:02:16.968768Z","epoch_age_seconds":63859,"freshness":"FRESH","line1":"1 62568U 25006Q   26145.20991862  .00017302  00000+0  63656-3 0  9996","line2":"2 62568  43.0015 220.5750 0001771 276.1582  83.9068 15.27590675 76565","mean_motion":15.27590675,"eccentricity":0.0001771,"inclination_deg":43.0015,"raan_deg":220.575,"arg_perigee_deg":276.1582,"mean_anomaly_deg":83.9068,"bstar":0.00063656,"rev_number":7656,"period_min":94.266089965494,"perigee_km":481.80202103881,"apogee_km":484.23224183216,"semimajor_km":6861.1541314355,"source":"CELESTRAK","updated_at":"2026-05-25T13:38:19.730262Z"}}}